Date,TemperatureHighF,TemperatureAvgF,TemperatureLowF,DewpointHighF,DewpointAvgF,DewpointLowF,HumidityHigh,HumidityAvg,HumidityLow,PressureMaxIn,PressureMinIn,WindSpeedMaxMPH,WindSpeedAvgMPH,GustSpeedMaxMPH,PrecipitationSumIn
2012-3-10,55,39,25,28,22,19,86,53,29,30.59,30.39,10,1,0,0.00
2012-3-11,67,50,30,36,32,26,92,54,30,30.43,30.19,11,2,12,0.00
2012-3-12,67,60,53,59,52,35,91,78,40,30.19,29.92,16,4,20,0.09
2012-3-13,80,67,57,59,54,47,93,66,32,30.12,29.99,10,1,18,0.00
2012-3-14,81,65,49,60,52,47,94,66,38,30.17,30.04,15,2,17,0.00
2012-3-15,82,67,59,63,57,51,91,71,42,30.12,30.03,14,2,21,0.00
2012-3-16,74,62,55,59,56,53,96,80,57,30.16,30.07,12,2,12,0.00
2012-3-17,77,63,50,62,56,48,97,80,55,30.17,30.05,12,2,15,0.14
2012-3-18,82,69,60,63,59,57,92,72,43,30.15,30.01,13,2,13,0.03
2012-3-19,83,71,60,60,58,54,92,65,42,30.11,29.98,15,1,16,0.00
2012-3-20,85,73,61,59,55,53,80,56,38,30.11,29.99,11,1,13,0.00
2012-3-21,86,71,57,60,56,52,92,63,32,30.15,30.02,12,1,14,0.00
2012-3-22,83,70,61,61,58,54,88,66,41,30.12,30.01,11,1,17,0.00
2012-3-23,67,62,54,62,59,52,96,91,78,30.08,29.76,9,1,0,2.22
2012-3-24,69,58,49,53,50,45,97,77,44,29.88,29.79,7,1,0,0.13
2012-3-25,70,60,52,57,54,49,95,81,62,30.04,29.87,10,1,12,0.00
2012-3-26,60,53,43,53,40,31,84,63,45,30.31,30.04,15,3,18,0.00
2012-3-27,68,51,36,42,32,25,73,50,27,30.32,30.00,10,2,12,0.00
2012-3-28,80,67,56,58,45,33,74,50,19,30.00,29.89,9,1,0,0.00
2012-3-29,64,56,43,43,40,36,86,57,40,30.10,29.96,8,1,0,0.00
2012-3-30,83,62,50,60,49,40,96,65,36,29.97,29.65,16,2,22,0.90
2012-3-31,61,51,46,59,47,43,95,84,71,29.94,29.79,9,2,0,0.00
2012-4-1,76,58,44,63,52,42,96,84,60,29.94,29.67,14,2,14,0.87
2012-4-2,71,61,51,61,48,41,91,64,36,29.93,29.67,8,1,12,0.00
2012-4-3,88,68,51,62,51,41,85,56,35,29.95,29.75,6,1,0,0.00
2012-4-4,72,62,57,60,54,39,93,78,50,29.82,29.75,11,1,14,0.63
2012-4-5,59,53,44,40,34,27,71,49,34,30.04,29.80,14,3,17,0.02
2012-4-6,61,47,34,34,31,27,83,56,29,30.26,30.04,13,2,15,0.00
2012-4-7,70,52,33,42,29,20,92,47,16,30.35,30.17,7,1,0,0.00
2012-4-8,66,58,48,45,35,17,75,46,16,30.27,30.13,12,2,16,0.00
2012-4-9,68,56,44,39,29,19,67,40,17,30.14,29.95,11,1,17,0.00
2012-4-10,55,47,41,30,25,22,59,43,29,30.09,29.98,11,1,12,0.00
2012-4-11,54,48,38,33,28,24,77,46,33,30.28,30.25,13,2,15,0.00
2012-4-12,64,47,30,37,30,25,95,59,26,30.36,30.16,8,1,0,0.00
2012-4-13,66,52,35,38,33,27,93,55,25,30.26,30.13,10,1,14,0.00
2012-4-14,61,56,50,59,49,37,96,80,51,30.14,29.94,8,1,0,1.75
2012-4-15,80,69,59,59,56,54,92,65,44,29.99,29.82,19,4,25,0.00
2012-4-16,71,64,52,62,52,42,91,66,46,30.23,29.76,18,3,23,0.17
2012-4-17,65,55,44,48,45,42,96,72,45,30.38,30.23,4,0,0,0.00
2012-4-18,71,55,40,47,41,36,97,65,30,30.29,30.06,8,0,0,0.00
2012-4-19,77,61,44,48,44,35,96,59,25,30.09,29.87,9,1,14,0.00
2012-4-20,77,61,45,54,48,42,90,65,41,29.88,29.72,12,2,16,0.03
2012-4-21,50,45,40,43,40,38,94,82,65,30.00,29.87,9,1,13,0.01
2012-4-22,56,46,38,39,34,26,96,67,34,30.00,29.91,13,2,18,0.00
2012-4-23,61,49,36,29,24,17,69,41,20,29.97,29.83,14,3,22,0.00
2012-4-24,67,51,38,48,30,18,87,48,19,29.86,29.76,10,1,13,0.03
2012-4-25,72,59,47,59,52,46,96,80,54,29.82,29.64,10,1,13,0.10
2012-4-26,75,66,59,61,57,47,96,75,45,29.86,29.58,13,2,15,0.00
2012-4-28,56,50,47,49,46,41,92,85,73,30.18,29.97,9,1,13,0.32
2012-4-29,68,56,45,55,48,40,89,75,61,30.23,30.08,6,1,0,0.00
2012-4-30,83,67,54,65,59,52,95,79,42,30.09,29.87,12,1,16,0.36
2012-5-1,78,66,61,68,63,60,97,89,69,30.04,29.84,13,1,14,0.77
2012-5-2,90,76,62,68,64,60,98,70,40,30.00,29.89,10,1,18,0.00
2012-5-3,88,76,63,67,63,59,96,65,43,30.06,29.91,16,2,19,0.00
2012-5-4,85,73,66,69,65,61,91,77,55,29.99,29.84,8,1,12,0.00
2012-5-5,89,74,64,68,65,62,97,76,45,29.98,29.85,8,1,0,0.00
2012-5-6,88,74,60,68,63,58,95,72,44,30.02,29.84,8,1,0,0.00
2012-5-7,86,73,67,68,65,60,95,78,48,29.86,29.72,10,1,14,0.26
2012-5-8,78,67,58,65,57,50,95,75,43,29.89,29.78,7,1,0,0.03
2012-5-9,54,53,51,50,49,48,90,87,82,29.91,29.86,3,0,0,0.11
2012-5-10,71,57,44,48,43,38,92,63,32,30.04,29.91,12,1,13,0.00
2012-5-11,78,61,44,50,44,37,96,60,25,30.19,30.04,7,1,0,0.00
2012-5-12,77,64,52,52,48,39,94,60,27,30.26,30.15,7,0,0,0.00
2012-5-13,67,62,59,59,57,52,94,82,64,30.17,30.05,6,0,0,0.02
2012-5-14,80,68,59,58,56,50,94,69,37,30.08,29.96,13,1,13,0.00
2012-5-15,85,69,54,57,48,33,95,57,17,30.02,29.92,7,0,0,0.00
2012-5-16,83,68,55,58,50,42,82,55,33,30.02,29.92,11,1,12,0.00
2012-5-17,77,64,48,43,40,35,77,44,23,30.14,30.02,13,1,13,0.00
2012-5-18,85,67,47,55,48,42,92,55,27,30.12,29.99,6,0,0,0.00
2012-5-19,91,74,55,61,56,52,90,58,30,30.11,30.01,8,0,0,0.00
2012-5-20,93,76,61,65,59,54,94,60,28,30.13,29.96,7,0,0,0.00
2012-5-21,76,68,61,67,59,50,88,73,60,30.04,29.95,9,1,14,0.03
2012-5-22,78,64,53,56,52,49,86,65,38,30.01,29.87,9,1,0,0.00
2012-5-23,84,68,52,60,54,50,93,63,34,29.93,29.81,9,1,0,0.00
2012-5-24,87,74,60,63,56,47,95,58,27,29.90,29.75,15,2,20,0.00
2012-5-25,90,79,68,70,64,53,73,61,48,30.03,29.82,11,1,0,0.00
2012-5-26,94,80,67,70,66,62,93,66,36,30.11,30.00,10,1,12,0.00
2012-5-27,95,81,68,70,66,64,92,64,38,30.05,29.92,10,1,12,0.00
2012-5-28,95,82,69,71,67,63,92,63,37,29.94,29.79,12,1,12,0.00
2012-5-29,82,74,66,69,66,62,93,77,60,29.89,29.75,8,0,12,0.16
2012-5-30,84,70,58,64,54,45,97,63,27,29.88,29.82,6,0,0,0.00
2012-5-31,81,65,52,62,54,49,92,70,35,29.91,29.67,10,1,15,0.14
2012-6-1,64,59,53,62,54,48,95,86,69,29.87,29.59,9,1,0,0.07
2012-6-2,74,61,50,53,48,43,86,65,36,29.92,29.84,8,1,0,0.00
2012-6-3,84,68,51,58,54,50,96,64,33,29.91,29.80,7,0,0,0.00
2012-6-4,75,67,61,61,58,56,89,74,58,29.87,29.77,5,0,0,0.01
2012-6-5,74,64,52,58,51,45,91,66,39,29.96,29.81,12,2,17,0.00
2012-6-6,77,64,49,52,47,44,89,59,33,30.04,29.96,9,1,14,0.00
2012-6-7,85,68,51,56,49,43,92,56,25,30.11,30.02,8,1,0,0.00
2012-6-8,89,72,54,57,52,45,93,56,23,30.11,29.96,5,0,0,0.00
2012-6-9,90,74,56,60,54,47,93,57,26,30.02,29.91,9,1,0,0.00
2012-6-10,89,76,61,65,61,58,91,63,38,30.01,29.92,14,2,18,0.00
2012-6-11,84,76,70,74,67,64,88,75,59,29.94,29.79,9,1,0,0.08
2012-6-12,87,75,65,69,57,39,97,60,21,30.04,29.85,10,1,13,0.00
2012-6-13,83,70,54,56,50,44,78,51,31,30.12,30.03,8,1,13,0.00
2012-6-14,88,71,53,51,46,34,81,46,15,30.13,30.03,11,1,12,0.00
2012-6-15,92,76,55,62,53,47,88,50,23,30.12,30.03,8,1,0,0.00
2012-6-16,88,77,65,73,65,60,90,68,41,30.13,29.97,14,2,17,0.00
2012-6-17,89,78,71,70,67,65,87,70,48,29.99,29.84,10,2,0,0.00
2012-6-18,91,81,70,68,65,61,90,62,37,29.93,29.84,17,3,18,0.00
2012-6-19,93,82,70,67,64,61,82,57,35,30.07,29.93,14,2,16,0.00
2012-6-20,94,82,67,67,64,59,90,58,33,30.13,29.97,12,2,15,0.00
2012-6-21,96,82,69,66,63,57,86,58,29,30.01,29.85,11,1,14,0.00
2012-6-22,93,78,66,66,59,50,94,57,26,29.96,29.88,8,1,0,0.00
2012-6-23,90,76,60,60,53,46,84,50,23,30.01,29.94,9,1,12,0.00
2012-6-24,95,81,66,64,59,52,85,50,26,30.00,29.87,9,0,0,0.00
2012-6-25,87,78,70,64,55,41,77,49,23,29.95,29.85,16,2,18,0.00
2012-6-26,83,71,54,52,46,41,75,43,25,30.03,29.91,12,1,15,0.00
2012-6-27,90,74,54,56,52,47,89,52,25,30.04,29.88,10,2,14,0.00
2012-6-28,109,86,66,65,60,55,73,44,22,29.91,29.77,6,1,0,0.00
2012-6-29,104,83,77,73,64,59,69,55,31,29.86,29.77,16,1,25,0.00
2012-6-30,102,84,72,68,65,61,83,55,29,29.87,29.76,13,1,16,0.00
2012-7-1,100,82,66,76,69,64,96,68,37,29.97,29.84,22,1,25,0.06
2012-7-2,101,84,68,73,68,64,91,62,34,30.01,29.89,7,1,0,0.00
2012-7-3,99,85,72,72,67,64,81,57,33,29.98,29.82,9,1,13,0.00
2012-7-4,103,88,75,73,70,66,81,56,32,29.93,29.82,7,0,12,0.00
2012-7-5,105,90,76,73,68,60,83,52,24,29.95,29.85,8,0,0,0.00
2012-7-6,106,91,76,74,69,62,84,53,27,29.96,29.85,7,1,0,0.00
2012-7-7,107,90,77,75,71,60,86,56,25,29.95,29.84,6,1,0,0.00
2012-7-8,96,83,74,76,71,65,86,68,47,29.96,29.87,9,1,0,0.02
2012-7-9,92,81,73,66,61,52,78,54,27,30.01,29.92,11,1,12,0.00
2012-7-10,95,80,64,65,58,50,88,53,23,30.02,29.94,10,1,12,0.00
2012-7-11,94,81,66,62,57,52,77,46,26,30.06,29.97,9,1,12,0.00
2012-7-12,93,79,65,67,61,53,75,56,35,30.06,29.99,9,1,14,0.00
2012-7-13,88,78,69,69,66,64,91,68,47,30.08,29.98,8,1,0,0.00
2012-7-14,84,76,72,73,70,67,94,83,65,30.11,30.01,12,1,12,0.08
2012-7-15,93,80,72,74,70,66,95,75,44,30.12,29.97,10,1,15,0.00
2012-7-16,98,83,73,75,71,66,90,69,40,30.04,29.87,9,1,12,0.00
2012-7-17,95,81,73,75,72,67,91,75,48,29.92,29.83,12,1,21,0.57
2012-7-18,96,79,73,82,73,70,95,85,52,29.94,29.84,9,0,13,0.36
2012-7-19,90,78,72,77,72,69,97,85,65,29.96,29.77,13,1,17,0.76
2012-7-20,78,73,67,73,69,62,96,86,69,30.03,29.82,10,1,13,0.16
2012-7-21,89,74,60,63,59,52,97,66,30,30.10,30.01,10,1,13,0.00
2012-7-22,94,78,64,69,64,62,95,66,36,30.13,30.03,9,1,0,0.00
2012-7-23,101,85,72,75,69,65,86,61,34,30.08,29.92,8,1,13,0.00
2012-7-24,96,86,80,75,72,69,73,62,45,29.95,29.84,6,1,0,0.00
2012-7-25,98,85,73,77,72,69,87,68,47,29.91,29.71,13,2,14,0.00
2012-7-26,98,89,81,75,71,68,73,57,41,29.76,29.65,9,1,0,0.00
2012-7-27,96,81,71,72,68,61,91,67,33,29.91,29.75,10,1,14,0.00
2012-7-28,85,75,65,68,64,61,92,70,45,30.06,29.91,11,1,12,0.00
2012-7-29,91,76,61,67,61,58,93,65,36,30.10,29.96,8,0,0,0.00
2012-7-30,92,78,64,68,63,58,93,63,37,30.00,29.88,12,1,13,0.00
2012-7-31,96,78,67,72,65,59,94,69,34,29.96,29.79,12,1,17,0.12
2012-8-1,92,78,67,70,63,53,95,66,28,29.91,29.82,10,1,12,0.00
2012-8-4,95,87,78,76,74,72,82,67,53,29.94,29.83,14,4,19,0.00
2012-8-5,90,79,71,74,70,61,95,75,42,30.09,29.90,9,2,14,0.10
2012-8-6,91,76,63,66,60,54,94,62,32,30.14,29.98,6,0,0,0.00
2012-8-7,97,80,61,64,58,44,93,53,18,30.01,29.89,5,0,0,0.00
2012-8-8,102,82,66,70,62,55,89,58,23,29.96,29.83,7,0,13,0.29
2012-8-9,93,78,67,70,65,61,94,66,35,29.96,29.72,10,1,0,0.64
2012-8-10,78,69,63,66,60,50,96,77,47,29.91,29.69,14,1,14,0.25
2012-8-11,81,68,56,58,53,48,93,63,32,29.99,29.90,8,0,12,0.00
2012-8-12,86,70,55,61,55,48,96,64,29,30.05,29.97,6,0,0,0.00
2012-8-13,80,71,65,64,61,57,86,72,57,29.99,29.88,11,1,14,0.00
2012-8-14,77,70,65,65,63,60,93,78,59,29.93,29.85,7,0,0,0.00
2012-8-15,89,74,59,64,61,57,97,68,36,30.00,29.91,8,0,0,0.00
2012-8-16,88,73,63,66,63,60,92,73,44,29.99,29.80,13,2,19,0.27
2012-8-17,82,71,63,65,59,52,93,70,39,29.97,29.86,10,1,0,0.00
2012-8-18,82,68,55,57,51,42,94,61,26,30.01,29.89,8,0,0,0.00
2012-8-19,82,68,57,58,52,41,86,60,24,29.94,29.86,9,1,0,0.00
2012-8-20,83,69,57,59,53,47,91,61,30,30.00,29.90,6,0,0,0.09
2012-8-21,79,65,55,61,57,52,97,78,45,30.07,29.97,9,0,12,0.01
2012-8-24,92,83,74,62,57,54,62,43,29,30.02,29.97,7,1,0,0.00
2012-8-25,94,78,64,65,60,50,91,58,23,30.09,29.99,9,1,0,0.00
2012-8-26,92,78,67,68,64,62,89,65,39,30.12,29.96,12,1,15,0.00
2012-8-27,84,76,72,74,70,64,94,81,66,30.03,29.94,6,0,0,0.33
2012-8-28,87,74,61,65,60,57,93,67,40,30.08,29.98,11,1,12,0.00
2012-8-29,88,73,60,62,59,56,95,65,37,30.07,29.96,7,0,13,0.00
2012-8-30,90,74,57,63,57,52,94,62,29,30.10,29.98,10,1,0,0.00
2012-8-31,87,77,67,73,69,61,92,76,59,30.15,30.02,9,1,0,0.00
2012-9-1,84,78,75,75,72,70,88,83,70,30.05,29.91,10,0,14,0.02
2012-9-2,78,74,72,73,71,70,95,91,82,29.92,29.77,10,0,16,0.69
2012-9-3,82,74,71,75,72,70,97,93,76,29.86,29.78,4,0,0,0.17
2012-9-4,91,79,74,75,73,70,97,82,53,29.88,29.80,2,0,0,0.00
2012-9-5,88,74,67,74,70,66,98,88,59,29.88,29.76,9,0,12,0.23
2012-9-6,86,74,65,73,68,65,98,86,62,29.96,29.85,9,0,0,0.01
2012-9-7,90,77,66,74,68,64,97,77,45,29.91,29.63,15,1,18,0.83
2012-9-8,76,66,58,66,57,49,97,76,42,29.92,29.66,13,0,15,0.51
2012-9-9,76,63,53,57,54,51,95,73,44,30.09,29.90,7,0,12,0.00
2012-9-10,81,65,52,58,53,49,96,68,35,30.22,30.09,5,0,0,0.00
2012-9-11,82,66,52,57,52,48,97,66,33,30.26,30.14,9,0,0,0.00
2012-9-12,86,69,55,62,57,53,96,68,36,30.26,30.16,0,0,0,0.00
2012-9-13,86,74,66,63,60,55,87,66,36,30.27,30.16,0,0,0,0.00
2012-9-14,68,62,53,62,56,46,95,80,48,30.30,30.18,0,0,0,0.01
2012-9-15,77,62,48,55,49,44,97,69,33,30.35,30.16,0,0,0,0.00
2012-9-16,82,66,52,58,52,44,96,65,28,30.17,29.99,0,0,0,0.00
2012-9-17,74,66,60,66,62,56,95,86,70,30.01,29.74,0,0,0,0.10
2012-9-18,69,62,49,65,52,38,97,74,38,30.04,29.65,0,0,0,0.02
2012-9-19,71,56,40,44,39,33,97,61,26,30.19,30.05,0,0,0,0.00
2012-9-20,70,59,49,57,49,41,90,70,51,30.07,29.93,0,0,0,0.01
2012-9-21,72,60,48,62,52,43,97,79,40,30.01,29.71,0,0,0,0.63
2012-9-22,71,59,45,56,43,28,96,60,25,30.17,29.75,0,0,0,0.28
2012-9-23,66,50,37,44,40,36,97,72,36,30.28,30.17,0,0,0,0.00
2012-9-24,71,53,37,44,39,32,97,66,26,30.30,30.05,0,0,0,0.00
2012-9-25,57,54,50,55,46,42,94,75,64,30.06,29.98,0,0,0,0.06
2012-9-26,62,62,62,62,61,61,97,97,97,30.08,30.07,0,0,0,0.40
2012-9-27,71,65,60,65,62,59,98,93,77,30.14,30.05,0,0,0,0.41
2012-9-28,73,62,56,63,58,51,98,88,61,30.11,30.02,0,0,0,0.02
2012-9-29,75,61,53,60,54,50,96,80,44,30.09,29.96,0,0,0,0.00
2012-9-30,73,59,48,53,48,38,98,72,32,29.96,29.84,0,0,0,0.00
2012-10-1,66,56,50,55,50,46,96,80,57,29.90,29.67,0,0,0,0.78
2012-10-2,65,58,53,61,56,52,98,94,86,29.91,29.67,0,0,0,0.16
2012-10-3,74,62,56,57,54,51,93,76,46,30.12,29.90,0,0,0,0.00
2012-10-4,79,65,52,59,55,50,94,73,46,30.20,30.11,0,0,0,0.00
2012-10-5,65,54,41,57,50,39,95,85,62,30.15,30.00,0,0,0,1.59
2012-10-6,57,45,35,40,37,33,97,76,45,30.21,30.10,0,0,0,0.05
2012-10-7,53,45,37,38,35,31,93,71,46,30.24,30.16,0,0,0,0.00
2012-10-8,58,43,31,38,33,29,97,73,35,30.30,30.16,0,0,0,0.00
2012-10-9,64,48,33,42,38,32,97,72,39,30.19,29.98,0,0,0,0.00
2012-10-10,58,49,37,44,37,27,87,66,37,30.27,29.95,0,0,0,0.00
2012-10-11,63,46,32,41,34,30,95,68,31,30.34,30.19,0,0,0,0.00
2012-10-12,61,50,39,42,40,37,94,71,44,30.41,30.21,0,0,0,0.00
2012-10-13,74,57,40,63,51,38,94,81,67,30.33,29.99,0,0,0,0.00
2012-10-14,73,68,59,63,59,54,88,75,57,29.99,29.67,23,2,33,0.11
2012-10-15,65,55,46,54,43,36,90,68,37,29.98,29.81,7,0,0,0.00
2012-10-16,68,53,37,46,41,35,97,69,39,30.03,29.78,12,1,16,0.00
2012-10-17,72,63,52,53,49,45,87,63,41,29.79,29.49,20,2,21,0.00
2012-10-18,67,56,48,54,44,32,94,68,32,29.66,29.44,18,2,25,0.46
2012-10-19,52,49,46,45,41,36,93,77,59,29.76,29.57,10,2,13,0.16
2012-10-20,55,49,42,50,44,40,94,84,66,30.02,29.75,7,1,0,0.01
2012-10-21,71,52,36,50,44,35,98,76,45,30.15,30.02,11,1,12,0.00
2012-10-22,79,66,54,57,53,48,81,65,44,30.10,29.96,11,2,15,0.00
2012-10-23,81,69,61,55,53,50,77,57,39,30.05,29.95,14,2,15,0.00
2012-10-24,80,68,56,58,53,50,83,61,40,30.07,29.97,13,2,16,0.00
2012-10-25,79,66,53,58,54,50,91,67,43,30.03,29.88,14,2,20,0.00
2012-10-26,67,48,43,56,44,39,93,86,65,30.23,29.91,15,3,19,0.33
2012-10-27,54,45,37,39,35,31,83,69,49,30.22,30.13,16,4,19,0.00
2012-10-28,50,42,37,34,-6,-100,84,62,49,30.18,30.10,15,4,19,0.00
2012-10-29,52,45,37,34,26,17,70,50,26,30.15,29.88,21,5,27,0.00
2012-10-30,43,41,39,37,34,31,90,77,63,29.89,29.67,21,3,21,0.17
2012-10-31,48,43,39,35,32,29,84,65,55,29.90,29.75,7,1,0,0.00
2012-11-1,58,44,32,33,25,14,76,51,20,29.97,29.88,7,0,12,0.00
2012-11-2,53,42,33,35,31,28,88,66,41,30.13,29.86,12,1,15,0.00
2012-11-3,41,37,33,38,34,30,93,89,78,30.24,30.08,9,1,0,0.23
2012-11-4,46,38,30,36,32,29,96,81,59,30.25,30.18,13,1,15,0.01
2012-11-5,47,35,25,31,28,23,96,79,51,30.24,30.13,7,0,0,0.00
2012-11-6,53,39,25,39,30,24,96,73,43,30.14,29.95,5,0,0,0.01
2012-11-7,50,42,34,40,38,32,94,85,58,30.18,29.93,8,0,0,0.05
2012-11-8,52,38,29,39,33,28,97,84,56,30.32,30.18,6,0,0,0.01
2012-11-9,63,46,29,43,37,28,97,74,44,30.28,30.11,12,2,13,0.00
2012-11-10,72,59,48,49,44,40,72,58,40,30.19,30.08,13,3,17,0.00
2012-11-11,68,60,51,50,44,40,66,55,44,30.20,29.99,21,5,24,0.00
2012-11-12,63,43,30,55,36,23,94,78,48,30.43,29.96,16,2,20,0.67
2012-11-13,42,33,25,27,24,22,94,72,47,30.58,30.43,10,1,0,0.00
2012-11-14,43,33,25,29,26,22,89,75,55,30.59,30.44,6,0,0,0.00
2012-11-15,46,34,25,34,29,23,96,81,57,30.46,30.37,5,0,0,0.00
2012-11-16,50,36,25,37,30,24,96,81,56,30.53,30.42,10,1,0,0.00
2012-11-17,56,39,26,39,31,24,96,75,41,30.61,30.48,6,0,0,0.00
2012-11-18,62,41,28,36,31,26,96,71,33,30.50,30.38,4,0,0,0.00
2012-11-19,61,44,31,40,34,29,93,70,37,30.40,30.21,4,0,0,0.00
2012-11-20,59,51,42,43,40,36,88,66,48,30.21,30.07,5,0,0,0.00
2012-11-21,58,58,58,45,45,44,62,62,59,30.25,30.24,2,0,0,0.00
2012-11-22,43,39,35,40,38,34,97,94,88,30.22,30.21,3,1,0,0.00
2012-11-23,31,30,30,19,18,18,61,60,60,30.25,30.25,2,2,0,0.03
2012-11-27,31,30,30,24,24,24,77,76,76,30.37,30.37,0,0,0,0.00
2012-11-29,47,42,40,30,30,29,65,60,50,30.28,30.23,5,1,0,0.00
2012-11-30,59,46,34,38,33,27,85,63,43,30.25,30.15,12,2,16,0.00
2012-12-1,66,54,42,48,44,37,85,68,50,30.26,30.12,14,2,17,0.00
2012-12-2,61,58,53,58,54,47,97,86,66,30.13,30.02,14,2,17,0.36
2012-12-3,71,63,58,61,57,53,97,82,64,30.13,30.03,15,3,21,0.01
2012-12-4,62,54,40,58,49,39,96,84,71,30.25,30.02,10,2,16,0.38
2012-12-5,47,39,32,39,34,28,98,83,58,30.42,30.24,10,1,0,0.00
2012-12-6,50,39,27,44,34,25,95,81,60,30.31,30.01,8,1,0,0.01
2012-12-7,53,49,45,52,48,44,98,96,93,30.02,29.85,5,0,0,0.44
2012-12-8,53,49,44,51,47,41,98,94,86,30.05,29.85,6,1,0,0.03
2012-12-9,58,51,44,57,49,42,97,94,90,30.05,29.71,13,2,13,0.62
2012-12-10,51,37,31,49,34,27,94,86,79,30.02,29.74,8,1,13,0.00
2012-12-11,36,31,25,27,24,22,90,78,60,30.29,30.02,10,1,13,0.00
2012-12-12,44,31,22,29,25,20,96,80,49,30.47,30.29,6,0,0,0.00
2012-12-13,47,33,21,30,25,20,97,75,45,30.48,30.30,13,1,13,0.00
2012-12-14,54,40,26,34,27,23,93,64,35,30.35,30.17,12,1,13,0.00
2012-12-15,53,46,39,50,40,29,92,78,59,30.18,29.79,12,2,15,0.17
2012-12-16,58,53,41,53,48,40,96,84,62,29.79,29.68,10,1,12,0.00
2012-12-17,46,42,38,44,41,37,97,94,89,29.77,29.58,10,1,12,0.11
2012-12-18,44,39,36,39,35,33,95,87,78,29.93,29.71,14,2,16,0.02
2012-12-19,45,41,33,39,35,30,90,81,74,30.13,29.83,15,1,15,0.00
2012-12-20,53,44,30,50,39,26,95,82,58,29.93,29.26,21,6,29,0.76
2012-12-21,30,26,24,26,22,19,92,82,76,30.23,29.60,19,4,20,0.00
2012-12-22,34,26,18,22,19,14,88,76,57,30.37,30.12,9,1,0,0.00
2012-12-23,50,34,24,33,26,20,87,74,47,30.12,29.97,6,0,0,0.00
2012-12-24,42,35,29,40,32,27,94,87,78,30.09,29.83,8,1,0,0.00
2012-12-25,34,33,32,29,28,26,89,82,78,30.26,30.06,14,3,16,0.00
2012-12-26,34,30,28,29,28,25,96,90,78,30.06,29.68,26,6,27,0.00
2012-12-27,35,29,24,28,25,21,93,85,76,30.25,30.06,7,1,0,0.04
2012-12-28,33,30,28,29,27,24,94,85,78,30.23,29.90,6,1,0,0.01
2012-12-29,32,29,25,30,26,20,96,89,80,30.35,29.85,6,1,0,0.00
2012-12-30,29,23,14,21,18,12,91,81,69,30.57,30.35,8,1,13,0.00
2012-12-31,37,30,22,31,27,19,96,88,67,30.42,30.13,8,2,0,0.09
2013-1-1,32,29,22,32,26,18,97,89,79,30.25,30.11,8,1,0,0.01